Location: Recife
(8.0585°S, 34.8848°W)
Time: 12:27:25
(UTC-03:00)

Injun/Solrad 3 - Visible Passes

Search period start: 14 April 2026 00:00
Search period end: 24 April 2026 00:00
Orbit: 869 x 987 km, 66.8° (Epoch: 14 April)

Date Brightness Start Highest point End Pass type
(mag) Time Alt. Az. Time Alt. Az. Time Alt. Az.
16 Apr 10.1 19:20:46 10° S 19:20:56 11° S 19:20:56 11° S visible
17 Apr 9.7 19:31:40 10° SSW 19:33:10 19° SSW 19:33:10 19° SSW visible
18 Apr 9.2 17:58:52 10° SSE 18:02:07 15° ESE 18:02:13 15° ESE visible
18 Apr 9.4 19:43:01 10° SW 19:46:01 28° WSW 19:46:01 28° WSW visible
19 Apr 8.6 18:08:18 10° S 18:13:11 28° ESE 18:16:14 18° ENE visible
19 Apr 9.8 19:54:55 10° WSW 19:59:21 23° WNW 20:00:12 22° WNW visible
20 Apr 7.9 18:18:35 10° S 18:24:11 50° ESE 18:29:49 10° NE visible
20 Apr 10.6 20:08:16 10° W 20:10:16 12° WNW 20:12:17 10° NW visible
21 Apr 7.7 18:29:20 10° SSW 18:35:09 90° ESE 18:41:01 10° NNE visible
22 Apr 8.6 18:40:30 10° SW 18:46:06 50° WNW 18:51:44 10° N visible
23 Apr 9.8 18:52:12 10° SW 18:57:01 27° WNW 19:01:55 10° NNW visible
